contact:dominique.lefevre@mio.osupytheas.fr, maurice.libes@osupytheas.fr, didier.mallarino@osupytheas.fr
Project:EMSO http://www.emso-fr.org/EMSO-France
Depth: 2436.0 m
Title:EMSO Ligure Ouest : Data MII capteur CSTAR
DateTime,Latitude,Longitude,Instrument_Serial,Reference_Counts,Signal_Counts,Corrected_Signal_raw_counts,Calculated_Beam_c_inverse_meters,Internal_thermistor_counts
DateTime,Latitude,Longitude,Instrument_Serial,Reference_Counts,Signal_Counts,Corrected_Signal_raw_counts,Calculated_Beam_c_inverse_meters,Internal_thermistor_counts
2022-01-03T00:02:17,42.805,6.029,CST-1368DR,4997,6370,13623,0.546,551
2022-01-03T00:05:19,42.805,6.029,CST-1368DR,4997,6371,13625,0.546,551
2022-01-03T00:08:20,42.805,6.029,CST-1368DR,4998,6370,13621,0.547,551
2022-01-03T00:11:22,42.805,6.029,CST-1368DR,4997,6369,13622,0.546,551
2022-01-03T00:14:23,42.805,6.029,CST-1368DR,4997,6371,13625,0.546,551
2022-01-03T00:17:25,42.805,6.029,CST-1368DR,4998,6370,13621,0.547,551
2022-01-03T00:20:26,42.805,6.029,CST-1368DR,4997,6370,13624,0.546,551
2022-01-03T00:23:28,42.805,6.029,CST-1368DR,4998,6370,13621,0.547,551
2022-01-03T00:26:30,42.805,6.029,CST-1368DR,4998,6370,13621,0.547,551
2022-01-03T00:29:31,42.805,6.029,CST-1368DR,4997,6369,13621,0.547,551
2022-01-03T00:32:33,42.805,6.029,CST-1368DR,4998,6369,13620,0.547,551
2022-01-03T00:35:34,42.805,6.029,CST-1368DR,4998,6369,13620,0.547,551
2022-01-03T00:38:36,42.805,6.029,CST-1368DR,4997,6369,13622,0.546,551
2022-01-03T00:41:37,42.805,6.029,CST-1368DR,4998,6369,13620,0.547,551
2022-01-03T00:44:39,42.805,6.029,CST-1368DR,4998,6369,13618,0.548,551
2022-01-03T00:47:41,42.805,6.029,CST-1368DR,4998,6370,13620,0.547,551
2022-01-03T00:50:42,42.805,6.029,CST-1368DR,4998,6369,13619,0.547,551
2022-01-03T00:53:44,42.805,6.029,CST-1368DR,4997,6369,13622,0.546,551
2022-01-03T00:56:45,42.805,6.029,CST-1368DR,4998,6369,13619,0.547,551
2022-01-03T00:59:47,42.805,6.029,CST-1368DR,4997,6369,13621,0.547,551
2022-01-03T01:02:49,42.805,6.029,CST-1368DR,4998,6368,13617,0.548,551
2022-01-03T01:05:50,42.805,6.029,CST-1368DR,4997,6369,13621,0.547,551
2022-01-03T01:08:52,42.805,6.029,CST-1368DR,4997,6368,13619,0.547,551
2022-01-03T01:11:53,42.805,6.029,CST-1368DR,4997,6368,13619,0.547,551
2022-01-03T01:14:55,42.805,6.029,CST-1368DR,4997,6367,13618,0.548,551
2022-01-03T01:17:56,42.805,6.029,CST-1368DR,4997,6368,13620,0.547,551
2022-01-03T01:20:58,42.805,6.029,CST-1368DR,4997,6369,13621,0.547,551
2022-01-03T01:24:00,42.805,6.029,CST-1368DR,4997,6367,13618,0.548,551
2022-01-03T01:27:01,42.805,6.029,CST-1368DR,4997,6368,13619,0.547,551
2022-01-03T01:30:03,42.805,6.029,CST-1368DR,4997,6368,13619,0.547,551
2022-01-03T01:33:04,42.805,6.029,CST-1368DR,4997,6368,13619,0.547,551
2022-01-03T01:36:06,42.805,6.029,CST-1368DR,4997,6369,13621,0.547,551
2022-01-03T01:39:08,42.805,6.029,CST-1368DR,4997,6368,13619,0.547,551
2022-01-03T01:42:09,42.805,6.029,CST-1368DR,4997,6369,13622,0.546,551
2022-01-03T01:45:11,42.805,6.029,CST-1368DR,4997,6369,13622,0.546,551
2022-01-03T01:48:12,42.805,6.029,CST-1368DR,4997,6368,13619,0.547,551
2022-01-03T01:51:14,42.805,6.029,CST-1368DR,4997,6369,13621,0.547,551
2022-01-03T01:54:15,42.805,6.029,CST-1368DR,4997,6368,13620,0.547,551
2022-01-03T01:57:17,42.805,6.029,CST-1368DR,4997,6367,13618,0.548,551
2022-01-03T02:00:19,42.805,6.029,CST-1368DR,4997,6368,13620,0.547,551
2022-01-03T02:03:20,42.805,6.029,CST-1368DR,4997,6367,13618,0.548,551
2022-01-03T02:06:22,42.805,6.029,CST-1368DR,4997,6369,13621,0.547,551
2022-01-03T02:09:23,42.805,6.029,CST-1368DR,4997,6368,13620,0.547,551
2022-01-03T02:12:25,42.805,6.029,CST-1368DR,4997,6368,13619,0.547,551
2022-01-03T02:15:27,42.805,6.029,CST-1368DR,4997,6368,13619,0.547,551
2022-01-03T02:18:28,42.805,6.029,CST-1368DR,4997,6367,13618,0.548,551
2022-01-03T02:21:30,42.805,6.029,CST-1368DR,4997,6369,13621,0.547,551
2022-01-03T02:24:31,42.805,6.029,CST-1368DR,4997,6363,13610,0.550,551
2022-01-03T02:27:33,42.805,6.029,CST-1368DR,4997,6368,13619,0.547,551
2022-01-03T02:30:34,42.805,6.029,CST-1368DR,4997,6368,13619,0.547,551
2022-01-03T02:33:36,42.805,6.029,CST-1368DR,4997,6368,13619,0.547,551
2022-01-03T02:36:38,42.805,6.029,CST-1368DR,4997,6366,13616,0.548,551
2022-01-03T02:39:39,42.805,6.029,CST-1368DR,4997,6368,13620,0.547,551
2022-01-03T02:42:41,42.805,6.029,CST-1368DR,4997,6367,13616,0.548,551
2022-01-03T02:45:42,42.805,6.029,CST-1368DR,4997,6368,13619,0.547,551
2022-01-03T02:48:44,42.805,6.029,CST-1368DR,4997,6367,13618,0.548,551
2022-01-03T02:51:46,42.805,6.029,CST-1368DR,4997,6368,13619,0.547,551
2022-01-03T02:54:47,42.805,6.029,CST-1368DR,4997,6368,13619,0.547,551
2022-01-03T02:57:49,42.805,6.029,CST-1368DR,4997,6368,13619,0.547,551
2022-01-03T03:00:50,42.805,6.029,CST-1368DR,4997,6367,13616,0.548,551
2022-01-03T03:03:52,42.805,6.029,CST-1368DR,4997,6366,13615,0.548,551
2022-01-03T03:06:53,42.805,6.029,CST-1368DR,4997,6366,13615,0.548,551
2022-01-03T03:09:55,42.805,6.029,CST-1368DR,4997,6367,13618,0.548,551
2022-01-03T03:12:57,42.805,6.029,CST-1368DR,4997,6368,13619,0.547,551
2022-01-03T03:15:58,42.805,6.029,CST-1368DR,4997,6367,13618,0.548,551
2022-01-03T03:19:00,42.805,6.029,CST-1368DR,4997,6365,13613,0.549,551
2022-01-03T03:22:01,42.805,6.029,CST-1368DR,4997,6366,13616,0.548,551
2022-01-03T03:25:03,42.805,6.029,CST-1368DR,4997,6367,13618,0.548,551
2022-01-03T03:28:04,42.805,6.029,CST-1368DR,4997,6368,13619,0.547,551
2022-01-03T03:31:06,42.805,6.029,CST-1368DR,4997,6367,13618,0.548,551
2022-01-03T03:34:08,42.805,6.029,CST-1368DR,4997,6368,13619,0.547,551
2022-01-03T03:37:09,42.805,6.029,CST-1368DR,4997,6366,13615,0.548,551
2022-01-03T03:40:11,42.805,6.029,CST-1368DR,4997,6367,13618,0.548,551
2022-01-03T03:43:12,42.805,6.029,CST-1368DR,4997,6367,13617,0.548,551
2022-01-03T03:46:14,42.805,6.029,CST-1368DR,4997,6367,13618,0.548,551
2022-01-03T03:49:16,42.805,6.029,CST-1368DR,4997,6365,13613,0.549,551
2022-01-03T03:52:17,42.805,6.029,CST-1368DR,4997,6366,13616,0.548,551
2022-01-03T03:55:19,42.805,6.029,CST-1368DR,4997,6367,13617,0.548,551
2022-01-03T03:58:20,42.805,6.029,CST-1368DR,4997,6365,13613,0.549,551
2022-01-03T04:01:22,42.805,6.029,CST-1368DR,4997,6364,13610,0.550,551
2022-01-03T04:04:23,42.805,6.029,CST-1368DR,4997,6367,13618,0.548,551
2022-01-03T04:07:25,42.805,6.029,CST-1368DR,4997,6364,13612,0.549,551
2022-01-03T04:10:27,42.805,6.029,CST-1368DR,4997,6366,13616,0.548,551
2022-01-03T04:13:28,42.805,6.029,CST-1368DR,4997,6366,13616,0.548,551
2022-01-03T04:16:30,42.805,6.029,CST-1368DR,4997,6366,13615,0.548,551
2022-01-03T04:19:31,42.805,6.029,CST-1368DR,4997,6367,13618,0.548,551
2022-01-03T04:22:33,42.805,6.029,CST-1368DR,4997,6367,13618,0.548,551
2022-01-03T04:25:34,42.805,6.029,CST-1368DR,4997,6367,13617,0.548,551
2022-01-03T04:28:36,42.805,6.029,CST-1368DR,4997,6366,13614,0.549,551
2022-01-03T04:31:38,42.805,6.029,CST-1368DR,4997,6366,13614,0.549,551
2022-01-03T04:34:39,42.805,6.029,CST-1368DR,4997,6366,13615,0.548,551
2022-01-03T04:37:41,42.805,6.029,CST-1368DR,4997,6367,13616,0.548,551
2022-01-03T04:40:42,42.805,6.029,CST-1368DR,4997,6366,13615,0.548,551
2022-01-03T04:43:44,42.805,6.029,CST-1368DR,4997,6367,13616,0.548,551
2022-01-03T04:46:46,42.805,6.029,CST-1368DR,4997,6366,13615,0.548,551
2022-01-03T04:49:47,42.805,6.029,CST-1368DR,4997,6365,13613,0.549,551
2022-01-03T04:52:49,42.805,6.029,CST-1368DR,4997,6366,13615,0.548,551
2022-01-03T04:55:50,42.805,6.029,CST-1368DR,4997,6366,13614,0.549,551
2022-01-03T04:58:52,42.805,6.029,CST-1368DR,4997,6365,13613,0.549,551
2022-01-03T05:01:53,42.805,6.029,CST-1368DR,4997,6366,13616,0.548,551
2022-01-03T05:04:55,42.805,6.029,CST-1368DR,4997,6366,13614,0.549,551
2022-01-03T05:07:57,42.805,6.029,CST-1368DR,4997,6366,13614,0.549,551
2022-01-03T05:10:58,42.805,6.029,CST-1368DR,4997,6366,13614,0.549,551
2022-01-03T05:14:00,42.805,6.029,CST-1368DR,4997,6366,13615,0.548,551
2022-01-03T05:17:01,42.805,6.029,CST-1368DR,4997,6366,13614,0.549,551
2022-01-03T05:20:03,42.805,6.029,CST-1368DR,4997,6364,13610,0.550,551
2022-01-03T05:23:05,42.805,6.029,CST-1368DR,4997,6365,13613,0.549,551
2022-01-03T05:26:06,42.805,6.029,CST-1368DR,4997,6366,13614,0.549,551
2022-01-03T05:29:08,42.805,6.029,CST-1368DR,4997,6366,13615,0.548,551
2022-01-03T05:32:09,42.805,6.029,CST-1368DR,4997,6367,13617,0.548,551
2022-01-03T05:35:11,42.805,6.029,CST-1368DR,4997,6365,13614,0.549,551
2022-01-03T05:38:12,42.805,6.029,CST-1368DR,4997,6366,13615,0.548,551
2022-01-03T05:41:14,42.805,6.029,CST-1368DR,4997,6365,13613,0.549,551
2022-01-03T05:44:16,42.805,6.029,CST-1368DR,4997,6365,13614,0.549,551
2022-01-03T05:47:17,42.805,6.029,CST-1368DR,4997,6366,13615,0.548,551
2022-01-03T05:50:19,42.805,6.029,CST-1368DR,4997,6364,13612,0.549,551
2022-01-03T05:53:20,42.805,6.029,CST-1368DR,4997,6366,13614,0.549,551
2022-01-03T05:56:22,42.805,6.029,CST-1368DR,4997,6366,13614,0.549,551
2022-01-03T05:59:24,42.805,6.029,CST-1368DR,4997,6366,13614,0.549,551
2022-01-03T06:02:25,42.805,6.029,CST-1368DR,4997,6365,13613,0.549,551
2022-01-03T06:05:27,42.805,6.029,CST-1368DR,4997,6365,13614,0.549,551
2022-01-03T06:08:28,42.805,6.029,CST-1368DR,4997,6365,13613,0.549,551
2022-01-03T06:11:30,42.805,6.029,CST-1368DR,4997,6365,13613,0.549,551
2022-01-03T06:14:31,42.805,6.029,CST-1368DR,4997,6365,13614,0.549,551
2022-01-03T06:17:33,42.805,6.029,CST-1368DR,4997,6365,13614,0.549,551
2022-01-03T06:20:35,42.805,6.029,CST-1368DR,4997,6365,13614,0.549,551
2022-01-03T06:23:36,42.805,6.029,CST-1368DR,4997,6364,13612,0.549,551
2022-01-03T06:26:38,42.805,6.029,CST-1368DR,4997,6366,13615,0.548,551
2022-01-03T06:29:39,42.805,6.029,CST-1368DR,4997,6366,13615,0.548,551
2022-01-03T06:32:41,42.805,6.029,CST-1368DR,4997,6364,13611,0.550,551
2022-01-03T06:35:42,42.805,6.029,CST-1368DR,4997,6365,13613,0.549,551
2022-01-03T06:38:44,42.805,6.029,CST-1368DR,4997,6364,13611,0.550,551
2022-01-03T06:41:46,42.805,6.029,CST-1368DR,4997,6365,13614,0.549,551
2022-01-03T06:44:47,42.805,6.029,CST-1368DR,4997,6365,13613,0.549,551
2022-01-03T06:47:49,42.805,6.029,CST-1368DR,4997,6364,13612,0.549,551
2022-01-03T06:50:50,42.805,6.029,CST-1368DR,4997,6364,13612,0.549,551
2022-01-03T06:53:52,42.805,6.029,CST-1368DR,4997,6365,13613,0.549,551
2022-01-03T06:56:54,42.805,6.029,CST-1368DR,4997,6364,13611,0.550,551
2022-01-03T06:59:55,42.805,6.029,CST-1368DR,4997,6365,13613,0.549,551
2022-01-03T07:02:57,42.805,6.029,CST-1368DR,4997,6364,13611,0.550,551
2022-01-03T07:05:58,42.805,6.029,CST-1368DR,4997,6364,13611,0.550,551
2022-01-03T07:09:00,42.805,6.029,CST-1368DR,4997,6365,13614,0.549,551
2022-01-03T07:12:01,42.805,6.029,CST-1368DR,4997,6364,13611,0.550,551
2022-01-03T07:15:03,42.805,6.029,CST-1368DR,4997,6364,13612,0.549,551
2022-01-03T07:18:05,42.805,6.029,CST-1368DR,4997,6364,13611,0.550,551
2022-01-03T07:21:06,42.805,6.029,CST-1368DR,4997,6364,13611,0.550,551
2022-01-03T07:24:08,42.805,6.029,CST-1368DR,4997,6364,13611,0.550,551
2022-01-03T07:27:09,42.805,6.029,CST-1368DR,4997,6363,13609,0.550,551
2022-01-03T07:30:11,42.805,6.029,CST-1368DR,4997,6364,13611,0.550,551
2022-01-03T07:33:13,42.805,6.029,CST-1368DR,4997,6365,13613,0.549,551
2022-01-03T07:36:14,42.805,6.029,CST-1368DR,4997,6363,13608,0.551,551
2022-01-03T07:39:16,42.805,6.029,CST-1368DR,4997,6364,13612,0.549,551
2022-01-03T07:42:17,42.805,6.029,CST-1368DR,4997,6365,13613,0.549,551
2022-01-03T07:45:19,42.805,6.029,CST-1368DR,4997,6364,13611,0.550,551
2022-01-03T07:48:20,42.805,6.029,CST-1368DR,4997,6364,13611,0.550,551
2022-01-03T07:51:22,42.805,6.029,CST-1368DR,4997,6363,13610,0.550,551
2022-01-03T07:54:24,42.805,6.029,CST-1368DR,4997,6364,13611,0.550,551
2022-01-03T07:57:25,42.805,6.029,CST-1368DR,4997,6365,13613,0.549,551
2022-01-03T08:00:27,42.805,6.029,CST-1368DR,4997,6365,13613,0.549,551
2022-01-03T08:03:28,42.805,6.029,CST-1368DR,4997,6365,13613,0.549,551
2022-01-03T08:06:30,42.805,6.029,CST-1368DR,4997,6364,13611,0.550,551
2022-01-03T08:09:32,42.805,6.029,CST-1368DR,4997,6365,13613,0.549,551
2022-01-03T08:12:33,42.805,6.029,CST-1368DR,4997,6363,13608,0.551,551
2022-01-03T08:15:35,42.805,6.029,CST-1368DR,4997,6364,13611,0.550,551
2022-01-03T08:18:36,42.805,6.029,CST-1368DR,4997,6364,13611,0.550,551
2022-01-03T08:21:38,42.805,6.029,CST-1368DR,4997,6364,13612,0.549,551
2022-01-03T08:24:39,42.805,6.029,CST-1368DR,4997,6364,13612,0.549,551
2022-01-03T08:27:41,42.805,6.029,CST-1368DR,4997,6364,13611,0.550,551
2022-01-03T08:30:43,42.805,6.029,CST-1368DR,4997,6363,13609,0.550,551
2022-01-03T08:33:44,42.805,6.029,CST-1368DR,4997,6364,13612,0.549,551
2022-01-03T08:36:46,42.805,6.029,CST-1368DR,4997,6364,13612,0.549,551
2022-01-03T08:39:47,42.805,6.029,CST-1368DR,4997,6364,13612,0.549,551
2022-01-03T08:42:49,42.805,6.029,CST-1368DR,4997,6364,13612,0.549,551
2022-01-03T08:45:51,42.805,6.029,CST-1368DR,4997,6365,13613,0.549,551
2022-01-03T08:48:52,42.805,6.029,CST-1368DR,4997,6364,13611,0.550,551
2022-01-03T08:51:54,42.805,6.029,CST-1368DR,4997,6364,13611,0.550,551
2022-01-03T08:54:55,42.805,6.029,CST-1368DR,4997,6364,13611,0.550,551
2022-01-03T08:57:57,42.805,6.029,CST-1368DR,4997,6364,13611,0.550,551
2022-01-03T09:00:58,42.805,6.029,CST-1368DR,4997,6364,13612,0.549,551
2022-01-03T09:04:00,42.805,6.029,CST-1368DR,4997,6364,13611,0.550,550
2022-01-03T09:07:02,42.805,6.029,CST-1368DR,4997,6364,13611,0.550,551
2022-01-03T09:10:03,42.805,6.029,CST-1368DR,4997,6364,13611,0.550,551
2022-01-03T09:13:05,42.805,6.029,CST-1368DR,4997,6364,13610,0.550,551
2022-01-03T09:16:06,42.805,6.029,CST-1368DR,4997,6364,13610,0.550,551
2022-01-03T09:19:08,42.805,6.029,CST-1368DR,4997,6364,13611,0.550,551
2022-01-03T09:22:09,42.805,6.029,CST-1368DR,4997,6364,13610,0.550,551
2022-01-03T09:25:11,42.805,6.029,CST-1368DR,4997,6363,13609,0.550,551
2022-01-03T09:28:13,42.805,6.029,CST-1368DR,4997,6363,13609,0.550,551
2022-01-03T09:31:14,42.805,6.029,CST-1368DR,4997,6360,13603,0.552,551
2022-01-03T09:34:16,42.805,6.029,CST-1368DR,4997,6363,13608,0.551,551
2022-01-03T09:37:17,42.805,6.029,CST-1368DR,4997,6361,13604,0.552,551
2022-01-03T09:40:19,42.805,6.029,CST-1368DR,4997,6361,13604,0.552,551
2022-01-03T09:43:21,42.805,6.029,CST-1368DR,4996,6362,13608,0.551,551
2022-01-03T09:46:22,42.805,6.029,CST-1368DR,4997,6358,13597,0.554,551
2022-01-03T09:49:24,42.805,6.029,CST-1368DR,4997,6360,13602,0.552,551
2022-01-03T09:52:25,42.805,6.029,CST-1368DR,4997,6357,13595,0.554,551
2022-01-03T09:55:27,42.805,6.029,CST-1368DR,4997,6355,13591,0.556,551
2022-01-03T09:58:28,42.805,6.029,CST-1368DR,4996,6356,13597,0.554,551
2022-01-03T10:01:30,42.805,6.029,CST-1368DR,4997,6355,13591,0.556,551
2022-01-03T10:04:32,42.805,6.029,CST-1368DR,4997,6355,13592,0.555,551
2022-01-03T10:07:33,42.805,6.029,CST-1368DR,4997,6355,13591,0.556,551
2022-01-03T10:10:35,42.805,6.029,CST-1368DR,4997,6356,13593,0.555,551
2022-01-03T10:13:36,42.805,6.029,CST-1368DR,4997,6364,13611,0.550,551
2022-01-03T10:16:38,42.805,6.029,CST-1368DR,4997,6365,13613,0.549,551
2022-01-03T10:19:40,42.805,6.029,CST-1368DR,4997,6364,13610,0.550,551
2022-01-03T10:22:41,42.805,6.029,CST-1368DR,4997,6364,13611,0.550,551
2022-01-03T10:25:43,42.805,6.029,CST-1368DR,4997,6364,13611,0.550,551
2022-01-03T10:28:44,42.805,6.029,CST-1368DR,4996,6364,13614,0.549,550
2022-01-03T10:31:46,42.805,6.029,CST-1368DR,4997,6364,13611,0.550,551
2022-01-03T10:34:47,42.805,6.029,CST-1368DR,4997,6364,13611,0.550,551
2022-01-03T10:37:49,42.805,6.029,CST-1368DR,4997,6364,13610,0.550,551
2022-01-03T10:40:51,42.805,6.029,CST-1368DR,4996,6363,13612,0.549,551
2022-01-03T10:43:52,42.805,6.029,CST-1368DR,4997,6363,13610,0.550,551
2022-01-03T10:46:54,42.805,6.029,CST-1368DR,4997,6364,13610,0.550,551
2022-01-03T10:49:55,42.805,6.029,CST-1368DR,4997,6363,13610,0.550,551
2022-01-03T10:52:57,42.805,6.029,CST-1368DR,4997,6363,13610,0.550,551
2022-01-03T10:55:58,42.805,6.029,CST-1368DR,4997,6363,13608,0.551,551
2022-01-03T10:59:00,42.805,6.029,CST-1368DR,4997,6364,13611,0.550,551
2022-01-03T11:02:02,42.805,6.029,CST-1368DR,4996,6362,13608,0.551,551
2022-01-03T11:05:03,42.805,6.029,CST-1368DR,4997,6363,13609,0.550,551
2022-01-03T11:08:05,42.805,6.029,CST-1368DR,4997,6363,13610,0.550,551
2022-01-03T11:11:06,42.805,6.029,CST-1368DR,4996,6364,13613,0.549,551
2022-01-03T11:14:08,42.805,6.029,CST-1368DR,4997,6364,13610,0.550,551
2022-01-03T11:17:10,42.805,6.029,CST-1368DR,4997,6363,13608,0.551,551
2022-01-03T11:20:11,42.805,6.029,CST-1368DR,4997,6362,13607,0.551,551
2022-01-03T11:23:13,42.805,6.029,CST-1368DR,4997,6362,13607,0.551,551
2022-01-03T11:26:14,42.805,6.029,CST-1368DR,4997,6362,13607,0.551,551
2022-01-03T11:29:16,42.805,6.029,CST-1368DR,4997,6363,13608,0.551,551
2022-01-03T11:32:17,42.805,6.029,CST-1368DR,4996,6362,13609,0.550,551
2022-01-03T11:35:19,42.805,6.029,CST-1368DR,4997,6362,13607,0.551,551
2022-01-03T11:38:21,42.805,6.029,CST-1368DR,4996,6363,13611,0.550,551
2022-01-03T11:41:22,42.805,6.029,CST-1368DR,4997,6362,13607,0.551,551
2022-01-03T11:44:24,42.805,6.029,CST-1368DR,4997,6363,13610,0.550,551
2022-01-03T11:47:25,42.805,6.029,CST-1368DR,4996,6361,13607,0.551,551
2022-01-03T11:50:27,42.805,6.029,CST-1368DR,4997,6364,13610,0.550,551
2022-01-03T11:53:29,42.805,6.029,CST-1368DR,4996,6361,13607,0.551,551
2022-01-03T11:56:30,42.805,6.029,CST-1368DR,4997,6363,13608,0.551,551
2022-01-03T11:59:32,42.805,6.029,CST-1368DR,4996,6363,13611,0.550,551
2022-01-03T12:02:33,42.805,6.029,CST-1368DR,4996,6363,13612,0.549,551
2022-01-03T12:05:35,42.805,6.029,CST-1368DR,4996,6363,13612,0.549,551
2022-01-03T12:08:36,42.805,6.029,CST-1368DR,4996,6362,13610,0.550,551
2022-01-03T12:11:38,42.805,6.029,CST-1368DR,4996,6361,13606,0.551,551
2022-01-03T12:14:40,42.805,6.029,CST-1368DR,4996,6361,13606,0.551,551
2022-01-03T12:17:41,42.805,6.029,CST-1368DR,4996,6362,13609,0.550,551
2022-01-03T12:20:43,42.805,6.029,CST-1368DR,4996,6362,13610,0.550,551
2022-01-03T12:23:44,42.805,6.029,CST-1368DR,4996,6362,13609,0.550,551
2022-01-03T12:26:46,42.805,6.029,CST-1368DR,4996,6362,13610,0.550,551
2022-01-03T12:29:48,42.805,6.029,CST-1368DR,4996,6362,13610,0.550,551
2022-01-03T12:32:49,42.805,6.029,CST-1368DR,4996,6363,13611,0.550,551
2022-01-03T12:35:51,42.805,6.029,CST-1368DR,4996,6362,13609,0.550,551
2022-01-03T12:38:52,42.805,6.029,CST-1368DR,4996,6363,13611,0.550,551
2022-01-03T12:41:54,42.805,6.029,CST-1368DR,4996,6363,13611,0.550,551
2022-01-03T12:44:55,42.805,6.029,CST-1368DR,4996,6362,13609,0.550,551
2022-01-03T12:47:57,42.805,6.029,CST-1368DR,4996,6363,13611,0.550,551
2022-01-03T12:50:59,42.805,6.029,CST-1368DR,4996,6362,13610,0.550,551
2022-01-03T12:54:00,42.805,6.029,CST-1368DR,4996,6361,13606,0.551,551
2022-01-03T12:57:02,42.805,6.029,CST-1368DR,4996,6362,13609,0.550,551
2022-01-03T13:00:03,42.805,6.029,CST-1368DR,4996,6361,13606,0.551,551
2022-01-03T13:03:05,42.805,6.029,CST-1368DR,4996,6362,13610,0.550,551
2022-01-03T13:06:06,42.805,6.029,CST-1368DR,4996,6362,13609,0.550,551
2022-01-03T13:09:08,42.805,6.029,CST-1368DR,4996,6363,13611,0.550,551
2022-01-03T13:12:10,42.805,6.029,CST-1368DR,4996,6362,13609,0.550,551
2022-01-03T13:15:11,42.805,6.029,CST-1368DR,4996,6363,13612,0.549,551
2022-01-03T13:18:13,42.805,6.029,CST-1368DR,4996,6361,13607,0.551,551
2022-01-03T13:21:14,42.805,6.029,CST-1368DR,4996,6362,13608,0.551,551
2022-01-03T13:24:16,42.805,6.029,CST-1368DR,4996,6359,13603,0.552,551
2022-01-03T13:27:18,42.805,6.029,CST-1368DR,4996,6363,13611,0.550,551
2022-01-03T13:30:19,42.805,6.029,CST-1368DR,4996,6362,13608,0.551,551
2022-01-03T13:33:21,42.805,6.029,CST-1368DR,4996,6362,13608,0.551,551
2022-01-03T13:36:22,42.805,6.029,CST-1368DR,4996,6362,13610,0.550,550
2022-01-03T13:39:24,42.805,6.029,CST-1368DR,4996,6362,13609,0.550,551
2022-01-03T13:42:25,42.805,6.029,CST-1368DR,4996,6362,13610,0.550,551
2022-01-03T13:45:27,42.805,6.029,CST-1368DR,4996,6360,13605,0.551,551
2022-01-03T13:48:29,42.805,6.029,CST-1368DR,4996,6360,13606,0.551,551
2022-01-03T13:51:30,42.805,6.029,CST-1368DR,4996,6363,13611,0.550,551
2022-01-03T13:54:32,42.805,6.029,CST-1368DR,4996,6361,13607,0.551,551
2022-01-03T13:57:33,42.805,6.029,CST-1368DR,4996,6360,13606,0.551,551
2022-01-03T14:00:35,42.805,6.029,CST-1368DR,4996,6361,13607,0.551,551
2022-01-03T14:03:37,42.805,6.029,CST-1368DR,4996,6362,13609,0.550,551
2022-01-03T14:06:38,42.805,6.029,CST-1368DR,4996,6360,13605,0.551,551
2022-01-03T14:09:40,42.805,6.029,CST-1368DR,4996,6363,13611,0.550,551
2022-01-03T14:12:41,42.805,6.029,CST-1368DR,4996,6360,13604,0.552,551
2022-01-03T14:15:43,42.805,6.029,CST-1368DR,4996,6361,13607,0.551,551
2022-01-03T14:18:44,42.805,6.029,CST-1368DR,4996,6363,13611,0.550,551
2022-01-03T14:21:46,42.805,6.029,CST-1368DR,4996,6362,13609,0.550,551
2022-01-03T14:24:48,42.805,6.029,CST-1368DR,4996,6363,13612,0.549,551
2022-01-03T14:27:49,42.805,6.029,CST-1368DR,4996,6364,13613,0.549,551
2022-01-03T14:30:51,42.805,6.029,CST-1368DR,4996,6364,13613,0.549,551
2022-01-03T14:33:52,42.805,6.029,CST-1368DR,4996,6364,13613,0.549,551
2022-01-03T14:36:54,42.805,6.029,CST-1368DR,4996,6364,13614,0.549,551
2022-01-03T14:39:55,42.805,6.029,CST-1368DR,4996,6364,13614,0.549,551
2022-01-03T14:42:57,42.805,6.029,CST-1368DR,4996,6363,13612,0.549,551
2022-01-03T14:45:59,42.805,6.029,CST-1368DR,4996,6365,13616,0.548,551
2022-01-03T14:49:00,42.805,6.029,CST-1368DR,4996,6363,13612,0.549,551
2022-01-03T14:52:02,42.805,6.029,CST-1368DR,4996,6365,13615,0.548,551
2022-01-03T14:55:03,42.805,6.029,CST-1368DR,4996,6364,13613,0.549,551
2022-01-03T14:58:05,42.805,6.029,CST-1368DR,4996,6362,13610,0.550,551
2022-01-03T15:01:07,42.805,6.029,CST-1368DR,4996,6364,13613,0.549,551
2022-01-03T15:04:08,42.805,6.029,CST-1368DR,4996,6364,13613,0.549,551
2022-01-03T15:07:10,42.805,6.029,CST-1368DR,4996,6363,13612,0.549,550
2022-01-03T15:10:11,42.805,6.029,CST-1368DR,4996,6364,13614,0.549,551
2022-01-03T15:13:13,42.805,6.029,CST-1368DR,4996,6363,13611,0.550,551
2022-01-03T15:16:14,42.805,6.029,CST-1368DR,4996,6363,13612,0.549,551
2022-01-03T15:19:16,42.805,6.029,CST-1368DR,4996,6362,13609,0.550,551
2022-01-03T15:22:18,42.805,6.029,CST-1368DR,4996,6362,13609,0.550,551
2022-01-03T15:25:19,42.805,6.029,CST-1368DR,4996,6362,13610,0.550,551
2022-01-03T15:28:21,42.805,6.029,CST-1368DR,4996,6365,13616,0.548,551
2022-01-03T15:31:22,42.805,6.029,CST-1368DR,4996,6364,13614,0.549,551
2022-01-03T15:34:24,42.805,6.029,CST-1368DR,4996,6361,13607,0.551,551
2022-01-03T15:37:26,42.805,6.029,CST-1368DR,4996,6364,13613,0.549,551
2022-01-03T15:40:27,42.805,6.029,CST-1368DR,4996,6365,13615,0.548,551
2022-01-03T15:43:29,42.805,6.029,CST-1368DR,4996,6364,13614,0.549,551
2022-01-03T15:46:30,42.805,6.029,CST-1368DR,4996,6365,13615,0.548,551
2022-01-03T15:49:32,42.805,6.029,CST-1368DR,4996,6363,13612,0.549,551
2022-01-03T15:52:33,42.805,6.029,CST-1368DR,4996,6365,13616,0.548,551
2022-01-03T15:55:35,42.805,6.029,CST-1368DR,4996,6364,13614,0.549,551
2022-01-03T15:58:37,42.805,6.029,CST-1368DR,4996,6364,13614,0.549,551
2022-01-03T16:01:38,42.805,6.029,CST-1368DR,4996,6365,13615,0.548,551
2022-01-03T16:04:40,42.805,6.029,CST-1368DR,4996,6362,13608,0.551,551
2022-01-03T16:07:41,42.805,6.029,CST-1368DR,4996,6364,13614,0.549,551
2022-01-03T16:10:43,42.805,6.029,CST-1368DR,4996,6364,13614,0.549,551
2022-01-03T16:13:45,42.805,6.029,CST-1368DR,4996,6364,13614,0.549,551
2022-01-03T16:16:46,42.805,6.029,CST-1368DR,4996,6365,13616,0.548,551
2022-01-03T16:19:48,42.805,6.029,CST-1368DR,4996,6365,13615,0.548,551
2022-01-03T16:22:49,42.805,6.029,CST-1368DR,4996,6364,13614,0.549,551
2022-01-03T16:25:51,42.805,6.029,CST-1368DR,4996,6365,13615,0.548,551
2022-01-03T16:28:52,42.805,6.029,CST-1368DR,4996,6364,13614,0.549,551
2022-01-03T16:31:54,42.805,6.029,CST-1368DR,4996,6363,13612,0.549,551
2022-01-03T16:34:56,42.805,6.029,CST-1368DR,4996,6363,13611,0.550,551
2022-01-03T16:37:57,42.805,6.029,CST-1368DR,4996,6364,13613,0.549,551
2022-01-03T16:40:59,42.805,6.029,CST-1368DR,4996,6364,13614,0.549,551
2022-01-03T16:44:00,42.805,6.029,CST-1368DR,4996,6363,13612,0.549,551
2022-01-03T16:47:02,42.805,6.029,CST-1368DR,4996,6364,13614,0.549,551
2022-01-03T16:50:03,42.805,6.029,CST-1368DR,4996,6365,13615,0.548,551
2022-01-03T16:53:05,42.805,6.029,CST-1368DR,4996,6364,13613,0.549,551